Wautoma, WI

1:07 PM CDT on May 26, 2017 (GMT -0500)
Wautoma

Weather History for KY50 - August, 2013

Change the Weather History Date:

Tuesday, August 27, 2013

  Actual Average (KPCZ) Record (KPCZ)
Temperature  
Mean Temperature 85 °F -  
Max Temperature 97 °F 80 °F 97 °F (1973)
Min Temperature 73 °F 57 °F 38 °F (1968)
Cooling Degree Days 20    
Growing Degree Days 35 (Base 50)    
Moisture  
Dew Point 74 °F    
Average Humidity 76    
Maximum Humidity 100    
Minimum Humidity 40    
Precipitation  
Precipitation 0.06 in - - ()
Sea Level Pressure  
Sea Level Pressure 29.85 in    
Wind  
Wind Speed 6 mph (South)    
Max Wind Speed 14 mph    
Max Gust Speed 23 mph    
Visibility 8 miles    
Events Rain    
Averages and records for this station are not official NWS values.
T = Trace of Precipitation, MM = Missing Value Source: NWS Daily Summary

Daily Weather History Graph

Daily Weather History Graph

Search for Another Location

Airport or City:

Trip Planner

Search our weather history database for the weather conditions in past years. The results will help you decide how hot, cold, wet, or windy it might be!

Date:

Astronomy

Aug. 27, 2013 Rise Set
Actual Time 6:14 AM CDT 7:41 PM CDT
Civil Twilight 5:44 AM CDT 8:11 PM CDT
Nautical Twilight 5:08 AM CDT 8:47 PM CDT
Astronomical Twilight 4:29 AM CDT 9:26 PM CDT
Moon 11:18 PM CDT (8/27) 1:28 PM CDT (8/27)
Length of Visible Light 14h 26m
Length of Day
13h 26m
Waning Gibbous, 57% of the Moon is Illuminated
Aug 27
Waning Gibbous
Aug 28
Last Quarter
Sep 5
New
Sep 12
First Quarter
Sep 19
Full

Hourly Weather History & Observations

Time (CDT) Temp. Heat Index Dew Point Humidity Pressure Visibility Wind Dir Wind Speed Gust Speed Precip Events Conditions
12:56 AM 79.9 °F - 75.9 °F 88% 29.92 in 10.0 mi South 4.6 mph - N/A   Clear
1:56 AM 79.9 °F - 75.9 °F 88% 29.88 in 10.0 mi SSW 3.5 mph - N/A   Clear
2:56 AM 77.0 °F - 77.0 °F 100% 29.89 in 10.0 mi East 3.5 mph - N/A   Clear
3:56 AM 74.8 °F - 74.8 °F 100% 29.90 in 10.0 mi Calm Calm - N/A   Clear
4:56 AM 75.9 °F - 75.9 °F 100% 29.89 in 10.0 mi South 4.6 mph - N/A   Scattered Clouds
5:56 AM 73.9 °F - 73.9 °F 100% 29.89 in 10.0 mi South 3.5 mph - N/A   Partly Cloudy
6:56 AM 74.8 °F - 74.8 °F 100% 29.88 in 10.0 mi SSE 4.6 mph - N/A   Clear
7:56 AM 77.0 °F - 73.9 °F 90% 29.88 in 10.0 mi Calm Calm - N/A   Clear
8:56 AM 79.0 °F - 72.0 °F 79% 29.87 in 10.0 mi South 4.6 mph - N/A   Clear
9:56 AM 82.9 °F 88.0 °F 72.0 °F 69% 29.85 in 10.0 mi SSW 6.9 mph - N/A   Clear
10:56 AM 88.0 °F 93.8 °F 70.9 °F 57% 29.83 in 10.0 mi SSW 11.5 mph - N/A   Clear
11:56 AM 92.8 °F 98.6 °F 70.0 °F 47% 29.82 in 10.0 mi SSW 13.8 mph - N/A   Clear
12:56 PM 95.0 °F 101.3 °F 70.0 °F 44% 29.80 in 10.0 mi West 10.4 mph - N/A   Clear
1:56 PM 97.0 °F 103.5 °F 70.0 °F 41% 29.78 in 10.0 mi SW 11.5 mph 18.4 mph N/A   Clear
2:56 PM 97.0 °F 103.5 °F 70.0 °F 41% 29.76 in 10.0 mi WSW 12.7 mph - N/A   Clear
3:56 PM 97.9 °F 104.7 °F 70.0 °F 40% 29.76 in 10.0 mi SW 12.7 mph - N/A   Partly Cloudy
4:56 PM 97.0 °F 103.5 °F 70.0 °F 41% 29.76 in 10.0 mi West 13.8 mph - N/A   Partly Cloudy
5:56 PM 95.0 °F 101.9 °F 70.9 °F 45% 29.78 in 10.0 mi West 10.4 mph - N/A   Mostly Cloudy
6:56 PM 91.9 °F 98.4 °F 70.9 °F 50% 29.78 in 10.0 mi West 9.2 mph - N/A   Mostly Cloudy
7:56 PM 88.0 °F 95.6 °F 72.9 °F 61% 29.80 in 10.0 mi WSW 5.8 mph - N/A   Mostly Cloudy
8:30 PM 80.6 °F 88.1 °F 78.8 °F 94% 29.86 in 10.0 mi ENE 12.7 mph 23.0 mph N/A   Overcast
8:56 PM 77.9 °F - 77.9 °F 100% 29.85 in 3.0 mi NE 5.8 mph - 0.02 in Rain Rain
9:04 PM 78.8 °F - 78.8 °F 100% 29.87 in 2.0 mi East 5.8 mph - 0.05 in Rain Heavy Rain
9:15 PM 77.0 °F - 77.0 °F 100% 29.89 in 1.8 mi ENE 3.5 mph - 0.11 in Rain Rain
9:20 PM 77.0 °F - 77.0 °F 100% 29.89 in 3.0 mi NE 3.5 mph - 0.12 in Rain Light Rain
9:30 PM 77.0 °F - 77.0 °F 100% 29.89 in 4.0 mi South 3.5 mph - 0.12 in Rain Light Rain
9:46 PM 77.0 °F - - N/A% 29.89 in 2.5 mi Calm Calm - 0.19 in Rain Rain
9:56 PM 75.2 °F - - N/A% 29.90 in 2.0 mi NNE 6.9 mph - N/A Rain Rain
10:16 PM 75.2 °F - - N/A% 29.89 in 4.0 mi East 5.8 mph - 0.03 in Rain Light Rain
10:56 PM 75.9 °F - - N/A% 29.87 in 8.0 mi Calm Calm - 0.04 in Rain Light Rain
11:56 PM 73.9 °F - - N/A% 29.86 in 10.0 mi North 3.5 mph - 0.00 in   Scattered Clouds